[[{"header":{"parameterUnit":"m.s-1","parameterCategory":1,"la1":30.2991,"la2":30.254,"lo1":-89.0895,"lo2":-89.0444,"dy":0.0017,"dx":0.0017,"nx":28,"ny":28,"refTime":"2024-07-25T21:00:00:Z","depth":0,"parameterNumber":2,"parameterNumberName":"U-component_of_WINDS"},"data":[0,0,0,0,0,0,0,0,0,0,0,0,0,0,0,0,0,0,0,0,0,0,0,0,0,0,0,0,0,0,0,0,0,0,0,0,0,0,0,0,0,0,0,0,0,0,0,0,0,0,0,0,0,0,0,0,0,0,-0.8385,-0.8386,0,-0.8471,-0.8472,-0.8473,-0.8483,-0.8482,-0.8481,-0.848,-0.8569,-0.8572,-0.8576,0,0,0,0,0,0,0,0,0,0,0,0,0,-0.8228,-0.8231,-0.8385,-0.8386,-0.8387,-0.8471,-0.8473,-0.8474,-0.8483,-0.8482,-0.8481,-0.848,-0.8568,-0.8572,-0.8576,0,0,0,0,0,0,0,0,0,0,0,0,0,-0.8304,-0.8232,-0.8385,-0.8402,-0.8404,-0.8471,-0.8473,-0.8474,-0.8483,-0.8482,-0.848,-0.8479,-0.8567,-0.8572,-0.8576,-0.8633,0,0,-0.8591,-0.8593,0,0,0,0,0,0,0,0,-0.8299,-0.8309,-0.8398,-0.8401,-0.8404,-0.8465,-0.845,-0.8527,-0.8483,-0.8453,-0.848,-0.8478,-0.8536,-0.8543,-0.8562,-0.8637,-0.8641,-0.8591,-0.8594,-0.8596,-0.8598,0,0,0,0,0,0,0,-0.8294,-0.8306,-0.8419,-0.8399,-0.8403,-0.8405,-0.8415,-0.8465,-0.8501,-0.8456,-0.8456,-0.8467,-0.8537,-0.8557,-0.8564,-0.8642,-0.8591,-0.8596,-0.8599,-0.86,-0.8767,-0.8768,0,0,0,0,0,0,-0.8286,-0.8301,-0.8416,-0.8422,-0.8347,-0.8409,-0.8419,-0.8447,-0.85,-0.8507,-0.8468,-0.8467,-0.855,-0.8559,-0.8567,-0.8637,-0.8596,-0.8601,-0.8604,-0.8765,-0.8767,-0.8769,0,0,0,0,0,0,-0.8282,-0.8296,-0.8413,-0.8362,-0.8377,-0.8413,-0.8444,-0.8449,-0.847,-0.8509,-0.8516,-0.8482,-0.8549,-0.8561,-0.8616,-0.864,-0.8603,-0.8607,-0.8764,-0.8766,-0.8768,-0.8776,0,0,0,0,0,0,-0.8278,-0.8295,-0.8316,-0.8362,-0.838,-0.846,-0.8445,-0.8452,-0.8478,-0.8477,-0.8524,-0.8531,-0.8549,-0.8609,-0.8621,-0.8646,-0.8611,-0.8762,-0.8765,-0.8767,-0.8773,-0.8778,-0.8782,0,0,0,0,0,-0.8272,-0.8315,-0.8317,-0.8331,-0.8407,-0.8462,-0.8472,-0.8491,-0.848,-0.8502,-0.8527,-0.853,-0.8635,-0.8615,-0.8628,-0.8655,-0.876,-0.8764,-0.8767,-0.8772,-0.8777,-0.8782,0,0,0,0,0,0,-0.8271,-0.8322,-0.8324,-0.8384,-0.8418,-0.8463,-0.8491,-0.8496,-0.8535,-0.8533,-0.8556,-0.8567,-0.8621,-0.8644,-0.862,-0.8712,-0.8697,-0.8703,-0.8695,-0.8701,-0.8705,-0.8698,-0.8615,0,0,0,0,0,-0.8278,-0.8317,-0.8359,-0.8407,-0.8425,-0.8455,-0.8479,-0.8491,-0.8528,-0.8543,-0.8573,-0.8608,-0.865,-0.8677,-0.8717,-0.8777,-0.8787,-0.8802,-0.8806,-0.8809,-0.8814,-0.8847,-0.8854,-0.878,-0.878,-0.878,0,0,-0.8292,-0.8324,-0.8348,-0.8408,-0.8436,-0.8477,-0.8467,-0.8511,-0.8541,-0.855,-0.8604,-0.8627,-0.8668,-0.8726,-0.8753,-0.8747,-0.8837,-0.8813,-0.8816,-0.8819,-0.8852,-0.8859,-0.8865,-0.8783,-0.8782,-0.8782,0,0,-0.8339,-0.8367,-0.841,-0.8439,-0.8481,-0.8501,-0.8512,-0.8556,-0.8571,-0.8626,-0.8633,-0.867,-0.874,-0.877,-0.8794,-0.8851,-0.8855,-0.8864,-0.8885,-0.8917,-0.8923,-0.8929,-0.8949,-0.8956,-0.8869,-0.8869,-0.8869,0,-0.8351,-0.8412,-0.8432,-0.8475,-0.8501,-0.8511,-0.8555,-0.8581,-0.8635,-0.8653,-0.8645,-0.8733,-0.8762,-0.8827,-0.8841,-0.886,-0.8873,-0.8858,-0.8921,-0.8926,-0.8932,-0.8951,-0.8959,-0.887,-0.8869,-0.8869,-0.8869,0,-0.8426,-0.8468,-0.8498,-0.8549,-0.8578,-0.8622,-0.8648,-0.8676,-0.8685,-0.8706,-0.8761,-0.8796,-0.8843,-0.8859,-0.8869,-0.8926,-0.892,-0.8916,-0.8901,-0.8939,-0.8958,-0.8966,-0.8871,-0.887,-0.887,-0.887,0,0,-0.8474,-0.8536,-0.8546,-0.857,-0.8617,-0.865,-0.8694,-0.874,-0.8763,-0.88,-0.8837,-0.8897,-0.8893,-0.892,-0.8934,-0.8962,-0.9005,-0.8954,-0.8956,-0.8962,-0.9069,-0.9072,-0.908,-0.9007,-0.9009,-0.901,-0.9065,0,-0.8527,-0.8604,-0.8623,-0.869,-0.8729,-0.8738,-0.8776,-0.881,-0.883,-0.8867,-0.8889,-0.8931,-0.8923,-0.894,-0.8968,-0.8993,-0.9026,-0.899,-0.9042,-0.9044,-0.9032,-0.909,-0.9093,-0.9143,-0.9073,-0.9074,-0.9075,0,-0.8598,-0.8636,-0.8706,-0.8748,-0.8766,-0.8799,-0.8843,-0.8878,-0.8916,-0.8929,-0.8959,-0.8969,-0.9015,-0.8997,-0.9061,-0.9036,-0.9058,-0.9074,-0.9076,-0.9082,-0.9062,-0.9097,-0.916,-0.9168,-0.9087,-0.9086,-0.9085,0,-0.8626,-0.8695,-0.8746,-0.8766,-0.8816,-0.884,-0.8862,-0.8899,-0.8925,-0.8963,-0.898,-0.9023,-0.9047,-0.908,-0.9101,-0.9087,-0.9163,-0.9148,-0.9175,-0.9175,-0.9191,-0.919,-0.9259,-0.9206,-0.9206,-0.9205,-0.9205,0,-0.8683,-0.8725,-0.8759,-0.8791,-0.8839,-0.886,-0.8907,-0.8929,-0.8962,-0.8998,-0.9009,-0.9042,-0.9068,-0.9106,-0.9123,-0.9173,-0.9183,-0.9195,-0.9199,-0.9194,-0.9193,-0.9209,-0.9207,-0.9207,-0.9207,-0.9207,-0.9206,0,-0.8723,-0.8747,-0.8803,-0.8846,-0.8858,-0.8892,-0.8929,-0.8959,-0.898,-0.9025,-0.9037,-0.907,-0.9114,-0.9139,-0.9194,-0.9206,-0.9262,-0.9264,-0.9249,-0.925,-0.9277,-0.9274,-0.9359,-0.9371,-0.931,-0.931,-0.9311,0,-0.8757,-0.879,-0.8836,-0.8861,-0.8884,-0.8923,-0.895,-0.8972,-0.8999,-0.9045,-0.907,-0.9115,-0.9152,-0.9223,-0.9251,-0.9294,-0.9297,-0.9324,-0.9304,-0.9298,-0.9298,-0.9295,-0.9299,-0.9327,-0.9328,-0.9329,-0.9329,0,-0.8815,-0.8826,-0.8864,-0.8906,-0.8937,-0.8972,-0.9006,-0.9026,-0.9053,-0.9084,-0.9129,-0.9157,-0.9214,-0.9259,-0.9303,-0.9326,-0.9332,-0.9335,-0.9344,-0.9339,-0.9329,-0.9334,-0.9258,-0.9333,-0.9333,-0.9332,-0.9332,-0.9332,-0.8854,-0.8883,-0.892,-0.8962,-0.899,-0.9022,-0.9053,-0.9077,-0.9115,-0.9163,-0.9173,-0.9221,-0.9258,-0.9319,-0.9343,-0.9381,-0.9376,-0.9388,-0.9391,-0.9394,-0.9395,-0.9322,-0.9389,-0.9389,-0.9389,-0.9389,-0.9389,0,-0.8912,-0.8936,-0.8975,-0.9022,-0.9055,-0.9057,-0.9095,-0.9123,-0.9164,-0.9198,-0.9234,-0.9286,-0.9329,-0.9361,-0.9405,-0.9429,-0.9432,-0.9439,-0.9438,-0.9443,-0.9397,-0.9385,-0.9436,-0.9436,-0.9436,-0.9436,-0.9435,-0.9435,-0.8947,-0.8997,-0.9012,-0.9076,-0.91,-0.9146,-0.9168,-0.9197,-0.9224,-0.9281,-0.9317,-0.9337,-0.937,-0.9416,-0.9456,-0.9464,-0.948,-0.9486,-0.9495,-0.9451,-0.9446,-0.9441,-0.943,-0.949,-0.949,-0.9538,-0.9538,-0.9539]},{"header":{"parameterUnit":"m.s-1","parameterCategory":1,"la1":30.2991,"la2":30.254,"lo1":-89.0895,"lo2":-89.0444,"dy":0.0017,"dx":0.0017,"nx":28,"ny":28,"refTime":"2024-07-25T21:00:00:Z","depth":0,"parameterNumber":3,"parameterNumberName":"V-component_of_WINDS"},"data":[0,0,0,0,0,0,0,0,0,0,0,0,0,0,0,0,0,0,0,0,0,0,0,0,0,0,0,0,0,0,0,0,0,0,0,0,0,0,0,0,0,0,0,0,0,0,0,0,0,0,0,0,0,0,0,0,0,0,1.1796,1.1795,0,1.1755,1.1754,1.1754,1.1747,1.1747,1.1747,1.1748,1.1705,1.1703,1.1702,0,0,0,0,0,0,0,0,0,0,0,0,0,1.1867,1.1866,1.1796,1.1795,1.1795,1.1755,1.1754,1.1754,1.1747,1.1747,1.1747,1.1748,1.1705,1.1703,1.1702,0,0,0,0,0,0,0,0,0,0,0,0,0,1.1832,1.1865,1.1796,1.1786,1.1785,1.1755,1.1754,1.1754,1.1747,1.1747,1.1748,1.1748,1.1706,1.1704,1.1701,1.1678,0,0,1.1695,1.1694,0,0,0,0,0,0,0,0,1.1834,1.183,1.1788,1.1787,1.1785,1.1756,1.1764,1.1728,1.1746,1.1761,1.1748,1.1748,1.1721,1.1718,1.1709,1.1676,1.1674,1.1694,1.1693,1.1692,1.1692,0,0,0,0,0,0,0,1.1837,1.1831,1.1779,1.1788,1.1786,1.1784,1.178,1.1757,1.1739,1.176,1.1759,1.1755,1.1721,1.1711,1.1708,1.1673,1.1695,1.1693,1.1691,1.169,1.162,1.162,0,0,0,0,0,0,1.1841,1.1833,1.1781,1.1778,1.1812,1.1782,1.1777,1.1765,1.1739,1.1736,1.1754,1.1754,1.1715,1.1711,1.1707,1.1678,1.1692,1.169,1.1689,1.1621,1.162,1.1619,0,0,0,0,0,0,1.1842,1.1836,1.1782,1.1806,1.1799,1.1781,1.1767,1.1764,1.1755,1.1735,1.1731,1.1748,1.1715,1.171,1.1685,1.1676,1.1689,1.1687,1.1621,1.1621,1.162,1.162,0,0,0,0,0,0,1.1844,1.1837,1.1827,1.1805,1.1797,1.1762,1.1766,1.1763,1.1751,1.1751,1.1728,1.1725,1.1715,1.1689,1.1683,1.1673,1.1685,1.1622,1.1621,1.162,1.1621,1.1619,1.1618,0,0,0,0,0,1.1847,1.1828,1.1827,1.182,1.1785,1.1761,1.1757,1.1746,1.175,1.1741,1.1729,1.1725,1.1679,1.1686,1.168,1.1669,1.1623,1.1621,1.162,1.1621,1.162,1.1618,0,0,0,0,0,0,1.1848,1.1825,1.1823,1.1797,1.1781,1.176,1.1748,1.1745,1.1727,1.1727,1.1715,1.171,1.1687,1.1676,1.1685,1.1646,1.1651,1.1648,1.1654,1.1652,1.1651,1.1654,1.1684,0,0,0,0,0,1.1846,1.1828,1.1809,1.1788,1.178,1.1765,1.1754,1.1748,1.1731,1.1724,1.171,1.1693,1.1675,1.1663,1.1645,1.162,1.1615,1.161,1.1608,1.1607,1.1605,1.1592,1.159,1.1615,1.1615,1.1615,0,0,1.184,1.1825,1.1814,1.1788,1.1775,1.1757,1.176,1.174,1.1727,1.1721,1.1698,1.1687,1.1668,1.1643,1.1632,1.1633,1.1597,1.1606,1.1605,1.1603,1.159,1.1588,1.1586,1.1615,1.1615,1.1615,0,0,1.182,1.1807,1.1788,1.1776,1.1757,1.1748,1.1743,1.1723,1.1716,1.1693,1.1688,1.1673,1.1641,1.1628,1.1617,1.1595,1.1592,1.159,1.1582,1.157,1.1568,1.1566,1.1559,1.1556,1.1588,1.1588,1.1588,0,1.1814,1.1788,1.1779,1.176,1.1749,1.1744,1.1726,1.1714,1.169,1.1682,1.1685,1.1647,1.1633,1.1606,1.1601,1.1593,1.1588,1.1592,1.1569,1.1567,1.1565,1.1558,1.1555,1.1588,1.1588,1.1588,1.1588,0,1.1783,1.1765,1.1752,1.173,1.1717,1.1699,1.1687,1.1676,1.1672,1.1662,1.1639,1.1624,1.1603,1.1597,1.1591,1.1569,1.1571,1.1572,1.1576,1.1563,1.1556,1.1553,1.1587,1.1588,1.1588,1.1588,0,0,1.176,1.1735,1.1731,1.1722,1.1701,1.1687,1.1669,1.165,1.1641,1.1625,1.161,1.1585,1.1586,1.1574,1.1567,1.1557,1.1542,1.1559,1.1558,1.1556,1.1517,1.1517,1.1514,1.154,1.1539,1.1539,1.1519,0,1.1738,1.1706,1.1698,1.1671,1.1655,1.1651,1.1636,1.1622,1.1614,1.1599,1.1589,1.1572,1.1574,1.1567,1.1556,1.1546,1.1533,1.1547,1.1526,1.1525,1.153,1.151,1.1509,1.149,1.1516,1.1516,1.1515,0,1.1707,1.1692,1.1663,1.1647,1.164,1.1626,1.1609,1.1595,1.158,1.1574,1.1562,1.1558,1.154,1.1546,1.1521,1.1531,1.1522,1.1516,1.1515,1.1512,1.1519,1.1506,1.1484,1.1482,1.1511,1.1511,1.1512,0,1.1694,1.1666,1.1646,1.1638,1.1618,1.1609,1.1601,1.1586,1.1576,1.1561,1.1554,1.1537,1.1528,1.1515,1.1506,1.1512,1.1483,1.1488,1.1478,1.1478,1.1471,1.1471,1.1447,1.1466,1.1466,1.1466,1.1466,0,1.1669,1.1652,1.164,1.1627,1.1608,1.16,1.1582,1.1573,1.1561,1.1547,1.1543,1.153,1.152,1.1505,1.1499,1.148,1.1476,1.1471,1.1469,1.1471,1.1472,1.1464,1.1465,1.1466,1.1466,1.1466,1.1466,0,1.165,1.1642,1.1619,1.1604,1.16,1.1586,1.1573,1.1561,1.1553,1.1536,1.1531,1.1519,1.1503,1.1493,1.1472,1.1468,1.1447,1.1446,1.1452,1.1451,1.1442,1.1443,1.1411,1.1407,1.1429,1.1429,1.1429,0,1.1635,1.1622,1.1605,1.1596,1.1588,1.1573,1.1563,1.1555,1.1545,1.1528,1.1518,1.1502,1.1488,1.1462,1.1451,1.1435,1.1434,1.1424,1.1431,1.1434,1.1434,1.1435,1.1434,1.1423,1.1422,1.1422,1.1422,0,1.1608,1.1605,1.1591,1.1576,1.1565,1.1552,1.154,1.1532,1.1523,1.1512,1.1495,1.1485,1.1464,1.1448,1.1432,1.1423,1.1421,1.142,1.1417,1.1418,1.1423,1.1421,1.1448,1.1421,1.1421,1.1421,1.1421,1.1421,1.1591,1.1579,1.1567,1.1552,1.1542,1.1531,1.152,1.1512,1.1498,1.1481,1.1478,1.146,1.1448,1.1426,1.1417,1.1404,1.1406,1.1401,1.14,1.1399,1.1399,1.1426,1.1401,1.1401,1.1401,1.1401,1.1401,0,1.1564,1.1557,1.1543,1.1526,1.1515,1.1515,1.1502,1.1493,1.1478,1.1466,1.1454,1.1435,1.142,1.141,1.1395,1.1386,1.1385,1.1382,1.1383,1.1381,1.1398,1.1402,1.1384,1.1384,1.1384,1.1384,1.1384,1.1384,1.1549,1.153,1.1526,1.1503,1.1496,1.1479,1.1472,1.1463,1.1454,1.1434,1.1422,1.1415,1.1404,1.1389,1.1375,1.1373,1.1367,1.1365,1.1362,1.1378,1.138,1.1381,1.1385,1.1364,1.1364,1.1347,1.1346,1.1346]}]]